Regional Weather Roundup
Issued by NWS

Home | Current Version | Previous Version | Graphics & Text | Print | Product List | Glossary On
Versions: 1 2 3 4 5 6 7 8 9 10 11 12 13 14 15 16 17 18 19 20 21 22 23 24 25 26 27 28 29 30 31 32 33 34 35 36 37 38 39 40 41 42 43 44 45 46 47 48 49 50
960
ASUS44 KJAN 040003
RWRMS

MISSISSIPPI HOURLY WEATHER ROUNDUP
NATIONAL WEATHER SERVICE JACKSON MS
600 PM CST TUE MAR 03 2015

NOTE: "FAIR: INDICATES FEW OR NO CLOUDS BELOW 12,000 FEET WITH NO
SIGNIFICANT WEATHER AND/OR OBSTRUCTIONS TO VISIBILITY.

MSZ001>002-007>008-010>013-018>021-025>028-034>036-040100-
NORTHWEST MISSISSIPPI

CITY           SKY/WX    TMP DP  RH WIND       PRES   REMARKS
CLARKSDALE     CLOUDY    55  55 100 CALM      29.92F VSB<1/4
CLEVELAND      FAIR      64  64 100 SW6       29.91R
GREENWOOD      CLOUDY    71  65  81 S10       29.92S
6HR MIN TEMP:  67; 6HR MAX TEMP:  75;

GREENVILLE     CLEAR     68  63  84 SW9       29.90S
6HR MIN TEMP:  56; 6HR MAX TEMP:  71; 6HR PCP: TRACE;

OLIVE BRANCH   LGT RAIN  55  55 100 S8        29.91F FOG
OXFORD         FOG       63  63 100 CALM      29.93F VSB 1/2
TUNICA         CLOUDY    55  54  94 S8        29.91S
$$

MSZ003>006-009-014>017-022>024-029>033-037>039-040100-
NORTHEAST MISSISSIPPI

CITY           SKY/WX    TMP DP  RH WIND       PRES   REMARKS
COLUMBUS AFB   PTCLDY    69  64  83 S9        29.94F
6HR MIN TEMP:  59; 6HR MAX TEMP:  73; 6HR PCP:  0.08;

CORINTH        CLOUDY    63  61  94 SW3       29.93S FOG
GOLDN TRIANGLE MOCLDY    70  63  78 S9        29.95F
STARKVILLE     DRIZZLE   68  64  88 CALM      29.96S
TUPELO         MOCLDY    63  61  93 S5        29.93F FOG
6HR MIN TEMP:  56; 6HR MAX TEMP:  64; 6HR PCP:  0.01;

$$

MSZ040-058-040100-
CENTRAL MISSISSIPPI

CITY           SKY/WX    TMP DP  RH WIND       PRES   REMARKS
JACKSON INTL   CLOUDY    68  67  96 S7        29.95F
6HR MIN TEMP:  68; 6HR MAX TEMP:  76; 6HR PCP:  0.03;

JACKSON HAWKNS CLOUDY    69  67  93 S3        29.95F
6HR MIN TEMP:  69; 6HR MAX TEMP:  76; 6HR PCP:  0.04;

MERIDIAN KEY   MOCLDY    70  63  78 S13G20    29.98F
6HR MIN TEMP:  70; 6HR MAX TEMP:  75;

MERIDIAN NAS   MOCLDY    70  63  78 SE8       29.99F
6HR MIN TEMP:  70; 6HR MAX TEMP:  76;

VICKSBURG      PTCLDY    72  66  81 S3        29.92F
6HR MIN TEMP:  70; 6HR MAX TEMP:  78;

$$

MSZ059>079-040100-
SOUTH MISSISSIPPI

CITY           SKY/WX    TMP DP  RH WIND       PRES   REMARKS
BROOKHAVEN     RAIN      70  70 100 S6        29.98S
HATTIESBURG    MOCLDY    71  65  81 S10       30.01S
6HR MIN TEMP:  71; 6HR MAX TEMP:  77;

MCCOMB         HVY RAIN  69  67  93 SW9G18    29.98R FOG
6HR MIN TEMP:  69; 6HR MAX TEMP:  76; 6HR PCP:  0.30;

NATCHEZ        MOCLDY    75  64  69 SW9       29.94S
6HR MIN TEMP:  70; 6HR MAX TEMP:  79;

PINE BELT      MOCLDY    70  63  78 S12       30.01S
6HR MIN TEMP:  70; 6HR MAX TEMP:  77;

$$

MSZ080>082-040100-
COASTAL MISSISSIPPI

CITY           SKY/WX    TMP DP  RH WIND       PRES   REMARKS
BAY ST LOUIS   MOCLDY    68  63  83 SE8       30.03S
BILOXI         CLEAR     67  66  99 SE9       30.03F
6HR MIN TEMP:  67; 6HR MAX TEMP:  73;

PASCAGOULA     PTCLDY    67  64  90 SE9       30.04F
6HR MIN TEMP:  67; 6HR MAX TEMP:  73;

GULFPORT       MOCLDY    66  63  90 SE12      30.03S
6HR MIN TEMP:  66; 6HR MAX TEMP:  71;

$$



USA.gov is the U.S. government's official web portal to all federal, state and local government web resources and services.